This is the latest recevied weather packets stored in our database for station/object PA1CD-13. If no packets are shown the sender has not sent any weather packets the latest 1 day(s).
| Time | Temp. | Humidity | Pressure | Rain* | Wind** | Luminosity | Snow |
|---|---|---|---|---|---|---|---|
| 1777968480 | 12.22° C | 56% | 1011.8 hPa | 0 mm | 0 m/s | 733 W/m² | - |
| 1777968360 | 12.22° C | 58% | 1011.8 hPa | 0 mm | 0.45 m/s, 0° | 644 W/m² | - |
| 1777968240 | 12.22° C | 58% | 1011.7 hPa | 0 mm | 0 m/s | 644 W/m² | - |
| 1777968119 | 12.22° C | 59% | 1011.8 hPa | 0 mm | 0.45 m/s, 0° | 644 W/m² | - |
| 1777967999 | 12.22° C | 58% | 1011.8 hPa | 0 mm | 0 m/s | 204 W/m² | - |
| 1777967879 | 12.22° C | 58% | 1011.8 hPa | 0 mm | 0.89 m/s, 0° | 202 W/m² | - |
| 1777967760 | 12.22° C | 56% | 1011.8 hPa | 0 mm | 0.45 m/s, 0° | 266 W/m² | - |
| 1777967639 | 12.22° C | 56% | 1011.7 hPa | 0 mm | 2.24 m/s, 0° | 266 W/m² | - |
| 1777967519 | 12.22° C | 56% | 1011.7 hPa | 0 mm | 0 m/s | 647 W/m² | - |
| 1777967399 | 11.67° C | 56% | 1011.7 hPa | 0 mm | 0 m/s | 631 W/m² | - |
| 1777967278 | 11.67° C | 56% | 1011.7 hPa | 0 mm | 0 m/s | 331 W/m² | - |
| 1777967160 | 11.67° C | 56% | 1011.7 hPa | 0 mm | 0.89 m/s, 69° | 331 W/m² | - |
| 1777967038 | 11.67° C | 56% | 1011.7 hPa | 0 mm | 0.45 m/s, 75° | 568 W/m² | - |
| 1777966919 | 11.67° C | 56% | 1011.7 hPa | 0 mm | 0 m/s | 499 W/m² | - |
| 1777966799 | 11.67° C | 54% | 1011.7 hPa | 0 mm | 0.89 m/s, 0° | 499 W/m² | - |
| 1777966679 | 11.67° C | 54% | 1011.7 hPa | 0 mm | 0 m/s | 499 W/m² | - |
| 1777966559 | 11.67° C | 54% | 1011.6 hPa | 0 mm | 0 m/s | 506 W/m² | - |
| 1777966440 | 11.67° C | 52% | 1011.7 hPa | 0 mm | 0.45 m/s, 65° | 452 W/m² | - |
| 1777966318 | 11.67° C | 51% | 1011.7 hPa | 0 mm | 0 m/s | 452 W/m² | - |
| 1777966199 | 11.67° C | 51% | 1011.6 hPa | 0 mm | 0.89 m/s, 0° | 468 W/m² | - |
| 1777966079 | 11.67° C | 51% | 1011.6 hPa | 0 mm | 1.34 m/s, 82° | 459 W/m² | - |
| 1777965959 | 11.11° C | 52% | 1011.6 hPa | 0 mm | 1.34 m/s, 59° | 459 W/m² | - |
| 1777965838 | 11.11° C | 52% | 1011.6 hPa | 0 mm | 0.89 m/s, 0° | 459 W/m² | - |
| 1777965719 | 11.11° C | 52% | 1011.6 hPa | 0 mm | 0.89 m/s, 100° | 341 W/m² | - |
| 1777965598 | 11.67° C | 51% | 1011.6 hPa | 0 mm | 0.45 m/s, 54° | 157 W/m² | - |
* Rain latest hour (hover to see other rain measurements)
** Current wind speed in m/s (hover to see current wind gust speed)